Regional Weather Roundup
Issued by NWS

Current Version | Previous Version | Text Only | Print | Product List | Glossary On
Versions: 1 2 3 4 5 6 7 8 9 10 11 12 13 14 15 16 17 18 19 20 21 22 23 24 25 26 27 28 29 30 31 32 33 34 35 36 37 38 39 40 41 42 43 44 45 46 47 48 49 50
000
ASUS46 KLOX 181202
RWRCA

SOUTHERN CALIFORNIA WEATHER ROUNDUP
NATIONAL WEATHER SERVICE OXNARD CALIFORNIA
500 AM PDT FRI APR 18 2014

NOTE: "FAIR" INDICATES FEW OR NO CLOUDS BELOW 12,000 FEET WITH NO
SIGNIFICANT WEATHER AND/OR OBSTRUCTIONS TO VISIBILITY.

  -  STATIONS PRECEEDED BY AN ASTERISK (*) ARE NOT NWS OR FAA
     STATIONS AND ARE NOT SUBJECT TO NWS AND FAA QUALITY CONTROL.

CAZ041-042-087-181300-
LA AND ORANGE COUNTY COASTAL AREAS


CITY           SKY/WX    TMP DP  RH WIND       PRES   REMARKS
L.A. DOWNTOWN  CLOUDY    62  51  67 VRB3      29.87R
L.A. AIRPORT   CLOUDY    62  51  67 SE6       29.88R
LONG BEACH     CLOUDY    61  49  64 CALM      29.87S

CITY           SKY/WX    TMP DP  RH WIND       PRES   REMARKS
AVALON           N/A     61 N/A N/A MISG        N/A
FULLERTON      CLOUDY    62  52  69 S5        29.86S
*GETTY CENTER    N/A     55  52  88 S6          N/A
HAWTHORNE      CLOUDY    62  49  62 SE7       29.88R
*LEO CARRILLO    N/A     60  58  92 E3          N/A
*LOS ALAMITOS  CLOUDY    61  52  72 SE6       29.87S
*REDONDO BEACH   N/A     59  53  79 CALM      29.86R
SANTA ANA      CLOUDY    63  52  67 CALM      29.87S
STA MONICA APT CLOUDY    64  52  64 SE5       29.88R
*UCLA            N/A     61  50  67 SE6       29.85R

$$

CAZ547-548-048-181300-
LA COUNTY VALLEYS AND INLAND EMPIRE


CITY           SKY/WX    TMP DP  RH WIND       PRES   REMARKS
BURBANK        CLOUDY    59  52  77 S6        29.87R
VAN NUYS       CLOUDY    59  51  75 S6        29.87R

CITY           SKY/WX    TMP DP  RH WIND       PRES   REMARKS
CORONA AIRPORT CLOUDY    60  53  77 CALM      29.87F
*CHATSWORTH      N/A     59  53  80 CALM      29.85S
CHINO          CLOUDY    60  54  80 CALM      29.87F
*CLAREMONT       N/A     55  52  89 CALM        N/A
MARCH AFB      CLOUDY    57  52  82 S3        29.86F
ONTARIO        CLOUDY    59  53  80 VRB5      29.86F
*PASADENA        N/A     59  54  82 E1          N/A
RIVERSIDE      CLOUDY    59  53  80 CALM      29.86F
SAN BERNARDINO NOT AVBL
*SAN GABRIEL     N/A     60  52  73 S1        29.85R
*SAN RAFAEL HI   N/A     53  53 100 S5          N/A
*SAUGUS          N/A     54  51  90 S8          N/A
*WHITEMAN AP   NOT AVBL
*WHITTIER HILL   N/A     56  54  93 S3          N/A
*WOODLAND HILL   N/A     59  52  77 SE3         N/A

$$

CAZ054-055-181300-
LA AND SAN BERNARDINO COUNTY MOUNTAINS


CITY           SKY/WX    TMP DP  RH WIND       PRES   REMARKS
*ACTON           N/A     52  50  93 S3          N/A
*BIG BEAR AIRP CLOUDY    45  32  61 SW3       29.99F
*BIG PINES       N/A     48   7  18 S2          N/A
MT WILSON NWS    N/A     46  21  36 MISG        N/A
SANDBERG       CLOUDY    53  42  66 SW7       29.91F
*WARM SPRINGS    N/A     51  45  80 SW7         N/A

$$

CAZ028-029-059-060-099-181300-
ANTELOPE VALLEY AND SURROUNDING AREAS


CITY           SKY/WX    TMP DP  RH WIND       PRES   REMARKS
LANCASTER      CLOUDY    59  41  51 W14       29.82F
PALMDALE       CLOUDY    55  44  66 S12       29.82F
*POPPY PARK      N/A     58  41  53 SW14        N/A

CITY           SKY/WX    TMP DP  RH WIND       PRES   REMARKS
29 PALMS       CLOUDY    67  38  34 SW5       29.87S
BARSTOW/DAGGET CLOUDY    64  45  49 SW12      29.82S
BISHOP         MOCLDY    50  29  44 NW6       29.82F
CHINA LAKE       N/A     64  40  41 S6        29.76F
EDWARDS AFB    CLOUDY    58  45  62 S8        29.79F
MOJAVE         FAIR      63  39  42 SW12      29.82R
NEEDLES        CLOUDY    73  25  16 W9        29.78S
VICTORVILLE    CLOUDY    55  45  67 S13       29.84S

$$

CAZ039-040-181300-
VENTURA AND SANTA BARBARA COUNTY COAST


CITY           SKY/WX    TMP DP  RH WIND       PRES   REMARKS
CAMARILLO      CLOUDY    58  54  86 NW5       29.86F
NWS OXNARD       N/A     58  54  85 CALM      29.86S
OXNARD AIRPORT CLOUDY    58  55  90 CALM      29.87S
*POINT MUGU    CLOUDY    63  56  78 S10       29.86S
SBA APT/GOLETA CLOUDY    58  53  84 W6        29.87S
*SANTA BARBARA   N/A     59  53  80 CALM      29.95S
*VENTURA         N/A     59  55  85 W3        29.90S

$$

CAZ044-045-181300-
VENTURA COUNTY VALLEYS


CITY           SKY/WX    TMP DP  RH WIND       PRES   REMARKS
*SIMI VALLEY     N/A     58  52  80 CALM      29.83R
*OJAI            N/A     57  53  87 CALM      29.82R
*FILLMORE        N/A     57  55  90 CALM      29.77S

$$

CAZ053-181300-
VENTURA COUNTY MOUNTAINS


CITY           SKY/WX    TMP DP  RH WIND       PRES   REMARKS
*LOCKWOOD VLY    N/A     43  37  81 MISG        N/A
*ROSE VALLEY     N/A     46  46 100 MISG        N/A

$$

CAZ034-035-036-181300-
CENTRAL COAST AND SANTA YNEZ VALLEY


CITY           SKY/WX    TMP DP  RH WIND       PRES   REMARKS
SAN LUIS OBISP CLOUDY    57  51  80 SE8       29.88F
SANTA MARIA    CLOUDY    55  52  88 SE3       29.90S FOG

CITY           SKY/WX    TMP DP  RH WIND       PRES   REMARKS
*CAL POLY SLO    N/A     57  54  88 E3          N/A
*CAMBRIA         N/A     55  52  89 CALM      29.78R
*LOMPOC        CLOUDY    55  48  76 CALM      29.91S
*PISMO BEACH     N/A     55  52  89 CALM      29.89S
*SANTA YNEZ    CLOUDY    54  50  87 W3        29.89S FOG

$$

CAZ037-038-051-181300-
SAN LUIS OBISPO COUNTY INTERIOR AND CUYAMA VALLEY


CITY           SKY/WX    TMP DP  RH WIND       PRES   REMARKS
*CUYAMA          N/A     52  45  76 W9        29.69R
PASO ROBLES    MOCLDY    51  45  79 CALM      29.87S

$$

CAZ032-033-061-181300-
SOUTHERN DESERTS


CITY           SKY/WX    TMP DP  RH WIND       PRES   REMARKS
BLYTHE         CLOUDY    67  43  41 SW3       29.77S
IMPERIAL       CLOUDY    65  51  60 E9        29.74F
PALM SPRINGS   CLOUDY    65  52  62 SE6       29.79F
THERMAL        CLOUDY    63  51  65 CALM      29.76S

$$

ELSEWHERE ACROSS THE WESTERN UNITED STATES AND MEXICO


CITY           SKY/WX    TMP DP  RH WIND       PRES   REMARKS
DENVER, CO     MOCLDY    49  25  39 SW16      29.99S
GRAND CANYON,  CLOUDY    31  15  52 E3        30.07S
HONOLULU, HI   CLOUDY    74  66  76 N6        30.07F
KAHULUI, MAUI  LGT RAIN  73  69  87 NE5       30.09F
LAKE TAHOE, CA MOCLDY    43  32  65 CALM      29.97R
LAS VEGAS, NV  CLOUDY    72  22  15 S9        29.75F
MAMMOTH LAKES, FAIR      43  30  61 W3        29.97S
MEXICO CITY, M PTCLDY    55  48  76 NE6       30.30R
PHOENIX, AZ    CLOUDY    72  35  25 SE5       29.83R
PORTLAND, OR   MOCLDY    40  39  97 S3        30.12R
RENO, NV       CLOUDY    50  37  61 N8        29.97R
SALT LAKE CITY CLOUDY    64  24  21 S20       29.81F
SAN DIEGO, CA  CLOUDY    63  52  67 VRB3      29.87F
SAN FRANCISCO, MOCLDY    53  49  86 W13       29.89S
SAN JOSE, CA   CLEAR     53  49  86 CALM      29.88S
SEATTLE, WA    PTCLDY    43  38  82 SW12      30.01R
TIJUANA, MEX   CLOUDY    59  50  72 CALM      29.88F

$$

STATION/POSITION TIME  TEMP    WIND        PRES    VSBY  WAVE
                       AIR SEA DIR/SP/G                  HT/PER
                 (UTC) (F)     (DEG/KT/KT) (MB)    (MI)  (FT/S)
POINT ARGUELLO B NOT AVBL
WEST SANTA BARBA 1100   55 54  330/ 12/ 14 1011.8F         7/10
POINT CONCEPTION NOT AVBL
EAST SANTA BARBA NOT AVBL
SANTA MONICA BAY 1100   60 60  100/ 10/ 12 1011.3R         3/13



USA.gov is the U.S. government's official web portal to all federal, state and local government web resources and services.